Regional Weather Roundup
Issued by NWS

Home | Current Version | Previous Version | Text Only | Print | Product List | Glossary Off
Versions: 1 2 3 4 5 6 7 8 9 10 11 12 13 14 15 16 17 18 19 20 21 22 23 24 25 26 27 28 29 30 31 32 33 34 35 36 37 38 39 40 41 42 43 44 45 46 47 48 49 50

000
ASUS43 KBIS 220110
RWRND

NORTH DAKOTA REGIONAL WEATHER ROUNDUP
NATIONAL WEATHER SERVICE BISMARCK ND
700 PM CST SAT JAN 21 2017

NOTE: "FAIR" INDICATES FEW OR NO CLOUDS BELOW 12,000 FEET WITH NO
SIGNIFICANT WEATHER AND/OR OBSTRUCTIONS TO VISIBILITY.


NDZ001>003-009>011-017-220200-
NORTHWEST NORTH DAKOTA

CITY           SKY/WX    TMP DP  RH WIND       PRES   REMARKS
WILLISTON      CLOUDY    30  28  92 NW14      29.52R WCI  19
MINOT          CLOUDY    27  25  92 W7        29.47R WCI  19
MINOT AFB      CLOUDY    27  25  93 SW6       29.47R WCI  20
$$

NDZ018>021-031>035-040>046-220200-
SOUTHWEST NORTH DAKOTA

CITY           SKY/WX    TMP DP  RH WIND       PRES   REMARKS
BISMARCK       CLOUDY    29  27  92 W3        29.51R
DICKINSON      FAIR      24  19  81 W16       29.47R WCI  11
GARRISON         N/A     24  22  91 W7        29.48R WCI  16
HETTINGER ARPT CLEAR     20  17  88 W12       29.52R WCI   8
$$

NDZ004>008-012>016-024-026-027-054-220200-
NORTHEAST NORTH DAKOTA

CITY           SKY/WX    TMP DP  RH WIND       PRES   REMARKS
GRAND FORKS    LGT RAIN  35  33  92 E3        29.51R FOG
GRND FRKS AFB  FOG       32  32 100 CALM      29.51R VSB 1/2
DEVILS LAKE    CLOUDY    33  33 100 CALM      29.49R
$$

NDZ022-023-025-028>030-036>039-047>053-220200-
SOUTHEAST NORTH DAKOTA

CITY           SKY/WX    TMP DP  RH WIND       PRES   REMARKS
FARGO          CLOUDY    37  34  89 CALM      29.51R
JAMESTOWN      CLOUDY    33  32  96 NW6       29.49R
$$





USA.gov is the U.S. government's official web portal to all federal, state and local government web resources and services.